"2009-05-03 00:00:30",852801,2.82,10.93,3.383,0.518,5.221,102.2974,5.163,6.235,87.3,0,109.9,13.48,5.93,332.9
"2009-05-03 00:01:00",852802,3.127,9.67,7.132,0.872,5.952,102.2971,5.162,6.318,87.4,0,109.8,13.48,5.93,331.7
"2009-05-03 00:01:30",852803,4.978,23.93,5.549,1.178,9.13,102.2943,5.155,6.47,87.5,0,109.9,13.48,5.92,345.9
"2009-05-03 00:02:00",852804,5.721,22.52,5.887,0.659,10.47,102.2906,5.145,6.528,87.6,0,109.9,13.48,5.92,344.5
"2009-05-03 00:02:30",852805,4.367,19.47,7.233,1.314,9.22,102.2838,5.128,6.439,87.6,0,109.9,13.48,5.90,341.5
"2009-05-03 00:03:00",852806,3.418,16.29,4.805,0.917,5.708,102.279,5.116,6.228,87.4,0,109.9,13.48,5.89,338.3
"2009-05-03 00:03:30",852807,3.76,15.98,2.295,0.314,4.857,102.2759,5.108,6.218,87.5,0,109.9,13.51,5.88,338.0
"2009-05-03 00:04:00",852808,3.991,13.22,3.811,0.728,5.409,102.2734,5.101,6.209,87.5,0,109.9,13.48,5.87,335.2
"2009-05-03 00:04:30",852809,6.383,26.85,6.978,1.119,9.77,102.2734,5.101,6.485,87.8,0,109.9,13.48,5.87,348.9
"2009-05-03 00:05:00",852810,6.825,29.61,4.448,0.842,10.44,102.2725,5.099,6.513,87.9,0,109.9,13.48,5.87,351.6
"2009-05-03 00:05:30",852811,7.007,30.65,3.934,0.759,10.48,102.2737,5.102,6.507,87.9,0,109.9,13.48,5.87,352.6
"2009-05-03 00:06:00",852812,6.067,26.49,6.206,1.272,8.4,102.2748,5.105,6.395,87.8,0,109.9,13.48,5.87,348.5
"2009-05-03 00:06:30",852813,4.553,18.8,1.247,0.208,5.465,102.2766,5.109,6.22,87.7,0,109.9,13.52,5.88,340.8
"2009-05-03 00:07:00",852814,5.286,21.96,5.89,1.238,6.537,102.2769,5.11,6.196,87.7,0,109.9,13.48,5.88,344.0
"2009-05-03 00:07:30",852815,5.403,22.88,6.793,1.148,7.778,102.28,5.118,6.377,87.9,0,109.9,13.48,5.89,344.9
"2009-05-03 00:08:00",852816,6.438,29.72,4.157,1.009,10.24,102.2806,5.12,6.493,88.1,0,109.9,13.48,5.89,351.7
"2009-05-03 00:08:30",852817,6.858,30.18,4.073,0.641,10.72,102.2809,5.121,6.491,88.1,0,109.9,13.48,5.89,352.2
"2009-05-03 00:09:00",852818,6.444,27.56,6.559,1.208,9.11,102.2809,5.121,6.43,88.1,0,109.9,13.48,5.89,349.6
"2009-05-03 00:09:30",852819,5.786,24.23,6.303,1.277,7.592,102.2815,5.122,6.25,87.9,0,109.9,13.48,5.89,346.2
"2009-05-03 00:10:00",852820,5.752,23.38,6.482,1.225,7.523,102.2821,5.124,6.254,88,0,109.9,13.48,5.89,345.4
"2009-05-03 00:10:30",852821,6.31,26.88,6.131,1.092,9.08,102.2858,5.133,6.402,88.1,0,109.9,13.48,5.90,348.9
"2009-05-03 00:11:00",852822,6.845,30.24,4.367,0.889,10.03,102.2873,5.137,6.454,88.2,0,109.9,13.48,5.91,352.2
"2009-05-03 00:11:30",852823,6.895,30.24,4.594,0.626,10.18,102.289,5.141,6.448,88.3,0,109.9,13.48,5.91,352.2
"2009-05-03 00:12:00",852824,5.762,25.27,6.404,1.186,8.15,102.289,5.141,6.417,88.3,0,109.9,13.48,5.91,347.3
"2009-05-03 00:12:30",852825,5.17,22.51,5.179,0.971,6.829,102.2905,5.145,6.315,88.2,0,109.9,13.48,5.92,344.5
"2009-05-03 00:13:00",852826,5.895,26.13,6.385,1.278,8.13,102.2911,5.147,6.324,88.3,0,109.9,13.48,5.92,348.1
"2009-05-03 00:13:30",852827,6.13,26.44,6.71,1.232,8.49,102.2883,5.139,6.439,88.4,0,109.9,13.48,5.91,348.4
"2009-05-03 00:14:00",852828,6.261,27.96,5.78,1.262,9.16,102.2883,5.14,6.403,88.4,0,109.8,13.48,5.91,350.0
"2009-05-03 00:14:30",852829,6.773,30.93,5.048,1.042,9.95,102.2886,5.14,6.451,88.5,0,109.8,13.48,5.91,352.9
"2009-05-03 00:15:00",852830,6.12,27.28,6.384,1.227,8.53,102.2889,5.141,6.343,88.4,0,109.8,13.48,5.91,349.3
"2009-05-03 00:15:30",852831,6.285,27.08,6.054,1.368,7.79,102.2872,5.137,6.306,88.4,0,109.9,13.48,5.91,349.1
"2009-05-03 00:16:00",852832,6.523,26.49,6.623,1.265,8.19,102.2827,5.125,6.279,88.4,0,109.9,13.48,5.90,348.5
"2009-05-03 00:16:30",852833,6.853,31.13,5.752,1.146,9.01,102.2759,5.108,6.389,88.6,0,109.8,13.48,5.88,353.1
"2009-05-03 00:17:00",852834,6.976,31.18,5.375,1.085,9.57,102.272,5.098,6.388,88.6,0,109.8,13.48,5.87,353.2
"2009-05-03 00:17:30",852835,6.246,26.79,6.109,1.131,8.92,102.2652,5.08,6.399,88.6,0,109.8,13.48,5.85,348.8
"2009-05-03 00:18:00",852836,6.337,26.86,5.677,1.174,9.19,102.2658,5.082,6.331,88.6,0,109.8,13.48,5.85,348.9
"2009-05-03 00:18:30",852837,5.074,20.68,4.098,0.878,6.126,102.2693,5.091,6.149,88.4,0,109.8,13.48,5.86,342.7
"2009-05-03 00:19:00",852838,5.839,25.9,5.672,1.236,7.849,102.2698,5.092,6.32,88.6,0,109.8,13.48,5.86,347.9
"2009-05-03 00:19:30",852839,6.792,29.93,5.384,1.066,9.44,102.2695,5.092,6.344,88.7,0,109.8,13.48,5.86,351.9
"2009-05-03 00:20:00",852840,6.507,30.43,4.626,1.17,9.48,102.2698,5.092,6.402,88.8,0,109.8,13.48,5.86,352.4
"2009-05-03 00:20:30",852841,6.346,30.43,6.343,1.138,8.92,102.2707,5.094,6.346,88.7,0,109.8,13.48,5.86,352.4
"2009-05-03 00:21:00",852842,6.517,30.4,7.035,1.185,8.93,102.2633,5.076,6.28,88.7,0,109.8,13.48,5.85,352.4
"2009-05-03 00:21:30",852843,4.99,26.7,4.271,0.861,5.972,102.2628,5.074,6.186,88.6,0,109.8,13.48,5.84,348.7
"2009-05-03 00:22:00",852844,6.538,34.34,5.967,1.146,8.62,102.2583,5.063,6.261,88.7,0,109.8,13.48,5.83,356.3
"2009-05-03 00:22:30",852845,6.323,35.44,5.917,1.341,8.96,102.2433,5.025,6.336,88.8,0,109.8,13.49,5.79,357.4
"2009-05-03 00:23:00",852846,6.491,35.94,6.058,1.118,9.41,102.2374,5.009,6.304,88.8,0,109.8,13.49,5.78,357.9
"2009-05-03 00:23:30",852847,6.071,33.86,6.322,1.24,8.47,102.2385,5.012,6.289,88.9,0,109.8,13.49,5.78,355.9
"2009-05-03 00:24:00",852848,5.441,29.35,5.273,1.214,6.961,102.2385,5.012,6.16,88.8,0,109.8,13.49,5.78,351.4
"2009-05-03 00:24:30",852849,6.376,35.28,5.892,1.232,9.1,102.2334,4.999,6.296,89,0,109.8,13.49,5.77,357.3
"2009-05-03 00:25:00",852850,6.594,35.7,5.794,1.084,9.4,102.2227,4.972,6.274,89,0,109.8,13.49,5.74,357.7
"2009-05-03 00:25:30",852851,6.912,36.91,4.578,0.809,9.95,102.2108,4.942,6.291,89.1,0,109.8,13.49,5.71,358.9
"2009-05-03 00:26:00",852852,6.27,35.4,5.53,1.151,9.29,102.2049,4.926,6.247,89.2,0,109.8,13.49,5.70,357.4
"2009-05-03 00:26:30",852853,5.993,34.54,6.439,1.235,8.27,102.2049,4.926,6.166,89.1,0,109.8,13.49,5.70,356.5
"2009-05-03 00:27:00",852854,4.933,31.53,5.052,0.891,6.866,102.2049,4.926,6.143,89.2,0,109.8,13.49,5.70,353.5
"2009-05-03 00:27:30",852855,6.161,36.33,6.269,1.266,8.39,102.2049,4.926,6.101,89.2,0,109.8,13.49,5.70,358.3
"2009-05-03 00:28:00",852856,6.546,38.41,6.286,1.221,9,102.2043,4.925,6.206,89.4,0,109.8,13.49,5.69,0.4
"2009-05-03 00:28:30",852857,7.137,40.01,5.479,0.965,9.92,102.1987,4.91,6.223,89.5,0,109.8,13.49,5.68,2.0
"2009-05-03 00:29:00",852858,6.395,38.15,6.028,1.131,9.02,102.1964,4.905,6.221,89.5,0,109.8,13.49,5.67,0.2
"2009-05-03 00:29:30",852859,6.785,39.01,6.339,1.236,9.59,102.193,4.896,6.156,89.5,0,109.8,13.49,5.67,1.0
"2009-05-03 00:30:00",852860,6.398,36.1,6.192,1.233,7.891,102.1868,4.88,5.993,89.5,0,109.8,13.49,5.65,358.1
"2009-05-03 00:30:30",852861,5.747,34.16,6.582,1.2,7.425,102.1797,4.862,6.12,89.7,0,109.8,13.49,5.63,356.2
"2009-05-03 00:31:00",852862,7.33,40.16,5.734,1.045,9.22,102.1758,4.852,6.151,89.8,0,109.8,13.49,5.62,2.2
"2009-05-03 00:31:30",852863,7.789,43.26,3.526,0.869,10.58,102.1721,4.843,6.188,89.9,0,109.8,13.49,5.61,5.3
"2009-05-03 00:32:00",852864,8.4,45.61,2.442,0.951,10.67,102.171,4.84,6.163,89.9,0,109.8,13.49,5.61,7.6
"2009-05-03 00:32:30",852865,8.31,42.92,6.68,1.35,9.41,102.171,4.84,6.153,89.9,0,109.8,13.49,5.61,4.9
"2009-05-03 00:33:00",852866,7.339,38.42,6.344,1.207,8.78,102.171,4.84,6.05,89.9,0,109.8,13.48,5.61,0.4
"2009-05-03 00:33:30",852867,7.035,38.9,6.622,1.395,9.06,102.171,4.84,6.11,90,0,109.8,13.48,5.61,0.9
"2009-05-03 00:34:00",852868,6.705,38.16,5.88,1.234,9.01,102.171,4.84,6.079,90.1,0,109.8,13.48,5.61,0.2
"2009-05-03 00:34:30",852869,7.299,38.96,6.81,1.306,9.12,102.1695,4.836,6.143,90.2,0,109.8,13.48,5.60,1.0
"2009-05-03 00:35:00",852870,7.739,40.46,5.975,1.029,9.46,102.1625,4.818,6.01,90.1,0,109.8,13.48,5.59,2.5
"2009-05-03 00:35:30",852871,7.351,39.26,6.529,1.307,8.6,102.1625,4.818,6.059,90.2,0,109.8,13.48,5.59,1.3
"2009-05-03 00:36:00",852872,8.49,44.19,4.995,1.119,10.33,102.1625,4.818,6.079,90.3,0,109.7,13.48,5.59,6.2
"2009-05-03 00:36:30",852873,7.642,41.02,5.918,1.207,9.79,102.1625,4.818,6.064,90.4,0,109.8,13.48,5.59,3.0
"2009-05-03 00:37:00",852874,8.47,44.46,3.864,0.941,10.49,102.1625,4.818,6.144,90.5,0,109.8,13.48,5.59,6.5
"2009-05-03 00:37:30",852875,8.69,45.19,4.156,1.004,10.49,102.1625,4.818,6.113,90.6,0,109.8,13.48,5.59,7.2
"2009-05-03 00:38:00",852876,9.27,46.95,3.481,0.65,10.49,102.1625,4.818,6.124,90.6,0,109.8,13.48,5.59,9.0
"2009-05-03 00:38:30",852877,9.05,46.65,2.901,0.847,10.46,102.1622,4.817,6.122,90.7,0,109.8,13.48,5.59,8.7
"2009-05-03 00:39:00",852878,8.95,45.27,4.287,0.559,10.63,102.1625,4.818,6.115,90.8,0,109.8,13.48,5.59,7.3
"2009-05-03 00:39:30",852879,9.06,46.79,3.374,0.678,10.44,102.1625,4.818,6.115,90.8,0,109.8,13.48,5.59,8.8
"2009-05-03 00:40:00",852880,9,47.48,3.559,0.775,10.86,102.163,4.82,6.134,90.9,0,109.8,13.48,5.59,9.5
"2009-05-03 00:40:30",852881,9.15,46.89,3.926,0.556,10.63,102.163,4.82,6.109,90.9,0,109.8,13.48,5.59,8.9
"2009-05-03 00:41:00",852882,8.82,46.09,3.42,0.739,10.56,102.1664,4.828,6.125,91,0,109.8,13.48,5.60,8.1
"2009-05-03 00:41:30",852883,9.15,46.41,4.35,0.545,10.83,102.167,4.83,6.139,91.1,0,109.8,13.48,5.60,8.4
"2009-05-03 00:42:00",852884,9.16,47.26,3.582,0.618,10.81,102.1695,4.836,6.112,91.1,0,109.8,13.48,5.60,9.3
"2009-05-03 00:42:30",852885,9.02,46.01,3.632,0.421,10.89,102.171,4.84,6.124,91.2,0,109.8,13.48,5.61,8.0
"2009-05-03 00:43:00",852886,8.94,45.14,4.549,0.431,10.74,102.1707,4.839,6.134,91.2,0,109.8,13.48,5.61,7.1
"2009-05-03 00:43:30",852887,9.07,45.49,4.527,0.504,10.93,102.171,4.84,6.141,91.3,0,109.8,13.48,5.61,7.5
"2009-05-03 00:44:00",852888,8.23,43.66,3.816,0.654,10.56,102.1698,4.837,6.134,91.3,0,109.8,13.48,5.61,5.7
"2009-05-03 00:44:30",852889,8.73,44.78,3.54,0.713,10.53,102.1642,4.822,6.137,91.3,0,109.8,13.48,5.59,6.8
"2009-05-03 00:45:00",852890,8.73,44.35,3.8,0.391,10.22,102.1628,4.819,6.111,91.3,0,109.9,13.48,5.59,6.3
"2009-05-03 00:45:30",852891,8.8,44.66,3.855,0.598,10.36,102.1625,4.818,6.14,91.4,0,109.8,13.48,5.59,6.7
"2009-05-03 00:46:00",852892,8.25,43.43,3.732,0.842,10.16,102.1619,4.817,6.126,91.4,0,109.8,13.49,5.59,5.4
"2009-05-03 00:46:30",852893,7.893,43.03,3.508,0.612,10.22,102.1619,4.817,6.121,91.5,0,109.8,13.48,5.59,5.0
"2009-05-03 00:47:00",852894,7.625,42.56,3.72,0.691,10.01,102.1588,4.809,6.119,91.5,0,109.8,13.48,5.58,4.6
"2009-05-03 00:47:30",852895,7.11,40.38,5.496,1.16,8.98,102.1498,4.786,6.076,91.5,0,109.8,13.48,5.55,2.4
"2009-05-03 00:48:00",852896,7.256,40.49,6.179,1.31,8.71,102.1441,4.771,5.939,91.4,0,109.8,13.48,5.54,2.5
"2009-05-03 00:48:30",852897,6.573,35.68,6.458,1.223,7.924,102.1444,4.772,5.933,91.4,0,109.8,13.49,5.54,357.7
"2009-05-03 00:49:00",852898,6.694,38.86,6.785,1.369,8.98,102.1427,4.768,6.001,91.5,0,109.8,13.49,5.54,0.9
"2009-05-03 00:49:30",852899,7.454,42.16,3.279,0.834,10.67,102.1373,4.754,6.087,91.6,0,109.8,13.48,5.52,4.2
"2009-05-03 00:50:00",852900,7.697,41.97,4.104,0.761,10.78,102.1367,4.752,6.086,91.7,0,109.8,13.48,5.52,4.0
"2009-05-03 00:50:30",852901,7.321,40.15,3.962,0.698,10.54,102.1339,4.745,6.086,91.7,0,109.8,13.48,5.51,2.2
"2009-05-03 00:51:00",852902,7.281,40.88,3.102,0.736,10.23,102.1288,4.732,6.091,91.8,0,109.8,13.48,5.50,2.9
"2009-05-03 00:51:30",852903,7.122,40.4,4.176,0.774,10.3,102.128,4.73,6.072,91.8,0,109.8,13.48,5.50,2.4
"2009-05-03 00:52:00",852904,6.598,38.26,5.522,1.172,9.52,102.1274,4.729,6.009,91.8,0,109.8,13.47,5.50,0.3
"2009-05-03 00:52:30",852905,6.673,36.91,5.331,1.115,9.62,102.1243,4.721,6.038,91.9,0,109.8,13.48,5.49,358.9
"2009-05-03 00:53:00",852906,6.776,36.8,5.713,1.001,9.51,102.1192,4.708,5.978,91.9,0,109.8,13.47,5.48,358.8
"2009-05-03 00:53:30",852907,7.15,37.9,5.314,0.889,9.95,102.1178,4.704,6.015,92,0,109.8,13.48,5.47,359.9
"2009-05-03 00:54:00",852908,7.273,37.43,4.825,0.814,10.23,102.113,4.692,6.03,92,0,109.8,13.48,5.46,359.4
"2009-05-03 00:54:30",852909,7.304,41.33,3.601,0.71,10.48,102.111,4.687,6.03,92.1,0,109.8,13.48,5.46,3.3
"2009-05-03 00:55:00",852910,7.331,40.98,3.52,0.706,10.4,102.1105,4.685,6.028,92.1,0,109.8,13.49,5.45,3.0
"2009-05-03 00:55:30",852911,7.321,41.99,3.595,0.709,10.47,102.1102,4.685,6.035,92.2,0,109.8,13.49,5.45,4.0
"2009-05-03 00:56:00",852912,7.136,41.54,3.485,0.628,10.46,102.1085,4.68,6.027,92.3,0,109.8,13.49,5.45,3.5
"2009-05-03 00:56:30",852913,7.256,41.45,4.051,0.383,10.8,102.1096,4.683,6.026,92.3,0,109.8,13.49,5.45,3.5
"2009-05-03 00:57:00",852914,7.076,40.25,4.311,0.667,10.27,102.1113,4.687,6.026,92.4,0,109.9,13.49,5.46,2.2
"2009-05-03 00:57:30",852915,7.269,41.39,3.552,0.672,10.14,102.1116,4.688,6.017,92.5,0,109.8,13.49,5.46,3.4
"2009-05-03 00:58:00",852916,7.575,41.66,4.676,0.684,9.95,102.111,4.687,5.963,92.4,0,109.9,13.49,5.46,3.7
"2009-05-03 00:58:30",852917,7,38.68,6.152,1.174,8.47,102.1119,4.689,5.875,92.4,0,109.8,13.49,5.46,0.7
"2009-05-03 00:59:00",852918,5.884,32.87,3.336,0.453,6.364,102.1113,4.687,5.823,92.4,0,109.8,13.49,5.46,354.9
"2009-05-03 00:59:30",852919,7.863,41.78,5.287,1.009,9.66,102.1113,4.687,5.92,92.5,0,109.8,13.49,5.46,3.8
"2009-05-03 01:00:00",852920,7.983,42.92,4.202,0.813,10.57,102.1096,4.683,6,92.6,0,109.8,13.49,5.45,4.9
"2009-05-03 01:00:30",852921,7.646,42.7,2.098,0.879,10.63,102.1085,4.68,6.029,92.7,0,109.8,13.49,5.45,4.7
"2009-05-03 01:01:00",852922,7.38,41.14,3.852,0.616,10.52,102.1091,4.682,5.97,92.7,0,109.8,13.49,5.45,3.1
"2009-05-03 01:01:30",852923,6.217,35.06,6.191,1.245,8.24,102.1068,4.676,5.953,92.7,0,109.8,13.49,5.44,357.1
"2009-05-03 01:02:00",852924,6.273,35.77,6.302,1.287,8.21,102.1062,4.674,5.886,92.7,0,109.8,13.49,5.44,357.8
"2009-05-03 01:02:30",852925,6.355,34.53,6.566,1.212,7.851,102.1042,4.669,5.813,92.6,0,109.8,13.49,5.44,356.5
"2009-05-03 01:03:00",852926,6.647,35.52,6.332,1.292,8.66,102.1034,4.667,5.955,92.8,0,109.9,13.49,5.44,357.5
"2009-05-03 01:03:30",852927,7.754,39.47,3.295,0.672,10.43,102.1031,4.666,5.98,92.9,0,109.8,13.49,5.43,1.5
"2009-05-03 01:04:00",852928,7.824,39.53,3.952,0.546,10.57,102.1011,4.661,6.005,92.9,0,109.8,13.49,5.43,1.5
"2009-05-03 01:04:30",852929,7.775,39.56,4.016,0.678,10.32,102.0966,4.65,6.003,93,0,109.8,13.49,5.42,1.6
"2009-05-03 01:05:00",852930,7.741,37.89,4.643,0.688,9.93,102.0952,4.646,5.979,93,0,109.8,13.49,5.41,359.9
"2009-05-03 01:05:30",852931,7.294,36.52,5.771,1.172,9.02,102.0946,4.645,5.928,93,0,109.8,13.49,5.41,358.5
"2009-05-03 01:06:00",852932,6.842,34.79,6.207,1.283,8.21,102.0944,4.644,5.844,93,0,109.8,13.49,5.41,356.8
"2009-05-03 01:06:30",852933,6.476,33,6.122,1.17,7.609,102.0944,4.644,5.846,93,0,109.8,13.48,5.41,355.0
"2009-05-03 01:07:00",852934,7.017,36.31,5.841,1.117,8.95,102.0929,4.641,5.882,93.1,0,109.8,13.49,5.41,358.3
"2009-05-03 01:07:30",852935,7.764,39.31,3.993,0.708,10.38,102.0935,4.642,5.964,93.2,0,109.8,13.49,5.41,1.3
"2009-05-03 01:08:00",852936,7.336,35.63,6.122,1.155,9.2,102.0924,4.639,5.901,93.2,0,109.8,13.49,5.41,357.6
"2009-05-03 01:08:30",852937,7.551,35.85,5.848,1.117,9.34,102.0944,4.644,5.902,93.3,0,109.8,13.49,5.41,357.9
"2009-05-03 01:09:00",852938,6.628,32.77,6.255,1.217,7.762,102.0907,4.635,5.819,93.3,0,109.8,13.49,5.40,354.8
"2009-05-03 01:09:30",852939,7.502,35.94,6.301,0.954,9.27,102.0927,4.64,5.889,93.4,0,109.8,13.49,5.41,357.9
"2009-05-03 01:10:00",852940,6.589,32.14,6.224,1.177,7.711,102.0935,4.642,5.739,93.3,0,109.8,13.49,5.41,354.1
"2009-05-03 01:10:30",852941,6.73,33.92,6.262,1.227,8.5,102.0929,4.641,5.927,93.5,0,109.8,13.49,5.41,355.9
"2009-05-03 01:11:00",852942,7.548,36.24,5.282,1.141,9.38,102.0941,4.643,5.9,93.5,0,109.8,13.49,5.41,358.2
"2009-05-03 01:11:30",852943,7.975,37.4,4.468,0.579,10.34,102.0935,4.642,5.909,93.6,0,109.8,13.49,5.41,359.4
"2009-05-03 01:12:00",852944,7.48,36.12,5.251,1.166,9.32,102.0944,4.644,5.879,93.6,0,109.8,13.49,5.41,358.1
"2009-05-03 01:12:30",852945,7.555,32.73,6.23,1.231,8.13,102.0935,4.642,5.869,93.6,0,109.8,13.49,5.41,354.7
"2009-05-03 01:13:00",852946,6.539,28.18,5.192,1.121,6.877,102.0935,4.642,5.763,93.5,0,109.8,13.5,5.41,350.2
"2009-05-03 01:13:30",852947,7.722,35.27,5.564,1.133,9.3,102.0918,4.638,5.925,93.7,0,109.8,13.5,5.41,357.3
"2009-05-03 01:14:00",852948,7.741,34.26,6.036,1.117,9.22,102.0881,4.628,5.87,93.7,0,109.8,13.5,5.40,356.3
"2009-05-03 01:14:30",852949,8.13,36.95,4.644,0.979,10.1,102.0856,4.622,5.978,93.8,0,109.8,13.5,5.39,359.0
"2009-05-03 01:15:00",852950,8.32,37.23,4.503,0.718,10,102.0856,4.622,5.913,93.8,0,109.8,13.5,5.39,359.2
"2009-05-03 01:15:30",852951,7.811,36.18,5.253,1.134,9.07,102.0805,4.609,5.877,93.8,0,109.8,13.5,5.38,358.2
"2009-05-03 01:16:00",852952,7.246,33.58,6.038,1.236,7.883,102.0788,4.604,5.832,93.8,0,109.8,13.5,5.37,355.6
"2009-05-03 01:16:30",852953,7.414,32.36,6.183,1.194,7.63,102.0766,4.599,5.886,93.8,0,109.8,13.5,5.37,354.4
"2009-05-03 01:17:00",852954,8.1,36.85,5.187,1.093,9.7,102.0777,4.602,5.891,93.9,0,109.8,13.5,5.37,358.9
"2009-05-03 01:17:30",852955,7.907,36.33,5.641,1.23,9.27,102.0757,4.597,5.874,93.9,0,109.8,13.5,5.36,358.3
"2009-05-03 01:18:00",852956,8.57,37.4,3.948,0.604,10.2,102.0698,4.581,5.933,94,0,109.8,13.5,5.35,359.4
"2009-05-03 01:18:30",852957,7.998,35.19,5.856,1.041,9.01,102.0658,4.571,5.836,93.9,0,109.8,13.5,5.34,357.2
"2009-05-03 01:19:00",852958,7.38,31.02,6.109,1.182,7.322,102.0633,4.565,5.752,93.9,0,109.8,13.5,5.33,353.0
"2009-05-03 01:19:30",852959,7.276,32.15,6.367,1.246,8.07,102.0622,4.562,5.731,93.9,0,109.8,13.5,5.33,354.1
"2009-05-03 01:20:00",852960,8.11,37.67,4.645,1.025,9.85,102.0645,4.568,5.836,94,0,109.8,13.49,5.34,359.7
"2009-05-03 01:20:30",852961,7.942,36.05,5.462,1.068,9.57,102.0605,4.558,5.857,94.1,0,109.8,13.5,5.33,358.0
"2009-05-03 01:21:00",852962,8.62,38.49,4.25,0.433,10.43,102.0559,4.546,5.9,94.2,0,109.8,13.5,5.31,0.5
"2009-05-03 01:21:30",852963,8.06,35.87,4.833,1.229,9.41,102.0542,4.542,5.908,94.2,0,109.8,13.49,5.31,357.9
"2009-05-03 01:22:00",852964,7.31,35.81,5.885,1.263,8.36,102.0548,4.543,5.796,94.1,0,109.8,13.49,5.31,357.8
"2009-05-03 01:22:30",852965,6.702,30.6,5.405,0.987,6.697,102.0534,4.54,5.733,94.1,0,109.8,13.49,5.31,352.6
"2009-05-03 01:23:00",852966,8.11,36.32,6.135,1.246,8.68,102.0543,4.542,5.762,94.2,0,109.8,13.49,5.31,358.3
"2009-05-03 01:23:30",852967,7.97,36.06,6.219,1.211,9.17,102.0545,4.542,5.843,94.3,0,109.8,13.49,5.31,358.1
"2009-05-03 01:24:00",852968,8.66,39.86,3.618,0.562,10.32,102.0569,4.548,5.863,94.4,0,109.8,13.49,5.32,1.9
"2009-05-03 01:24:30",852969,8.29,37.94,4.633,0.936,10.09,102.0497,4.53,5.855,94.4,0,109.8,13.49,5.30,359.9
"2009-05-03 01:25:00",852970,8.37,37.64,5.704,1.064,8.83,102.0483,4.527,5.772,94.3,0,109.8,13.49,5.29,359.6
"2009-05-03 01:25:30",852971,7.486,33.47,6.811,0.918,7.978,102.0433,4.514,5.751,94.4,0,109.8,13.49,5.28,355.5
"2009-05-03 01:26:00",852972,7.627,35.66,6.303,1.186,8.49,102.0365,4.496,5.712,94.3,0,109.8,13.49,5.26,357.7
"2009-05-03 01:26:30",852973,7.87,37.64,5.698,1.253,9.18,102.0308,4.482,5.791,94.4,0,109.8,13.49,5.25,359.6
"2009-05-03 01:27:00",852974,8.54,37.66,5.435,1.096,9.84,102.0288,4.477,5.824,94.5,0,109.8,13.49,5.24,359.7
"2009-05-03 01:27:30",852975,8.65,36.82,3.91,0.918,10.04,102.0308,4.482,5.824,94.6,0,109.8,13.5,5.25,358.8
"2009-05-03 01:28:00",852976,8.95,35.55,4.165,0.742,10.11,102.0294,4.478,5.825,94.6,0,109.7,13.5,5.25,357.5
"2009-05-03 01:28:30",852977,8.75,37.81,4.307,0.739,9.89,102.03,4.48,5.815,94.6,0,109.8,13.5,5.25,359.8
"2009-05-03 01:29:00",852978,9.11,37.05,4.408,0.879,9.95,102.0238,4.464,5.86,94.7,0,109.8,13.5,5.23,359.0
"2009-05-03 01:29:30",852979,9.03,34.29,4.678,0.885,9.95,102.0229,4.462,5.802,94.7,0,109.8,13.5,5.23,356.3
"2009-05-03 01:30:00",852980,8.93,32.39,5.696,0.962,10.04,102.0255,4.468,5.801,94.7,0,109.8,13.49,5.24,354.4
"2009-05-03 01:30:30",852981,9.6,32.57,3.946,0.793,10.13,102.0252,4.468,5.817,94.7,0,109.8,13.49,5.24,354.6
"2009-05-03 01:31:00",852982,9.14,31.89,4.189,0.593,10.19,102.0244,4.465,5.823,94.8,0,109.8,13.49,5.23,353.9
"2009-05-03 01:31:30",852983,8.89,33.31,4.204,0.628,10.28,102.0244,4.465,5.802,94.8,0,109.8,13.49,5.23,355.3
"2009-05-03 01:32:00",852984,8.79,34.38,4.433,0.827,10.28,102.0252,4.468,5.804,94.8,0,109.8,13.49,5.24,356.4
"2009-05-03 01:32:30",852985,8.65,35.59,3.399,0.837,10.35,102.0247,4.466,5.801,94.9,0,109.8,13.49,5.23,357.6
"2009-05-03 01:33:00",852986,8.89,35.3,4.159,0.741,10.24,102.0249,4.467,5.805,94.9,0,109.8,13.49,5.23,357.3
"2009-05-03 01:33:30",852987,8.41,38.07,3.507,0.739,10.17,102.0241,4.465,5.796,94.9,0,109.8,13.49,5.23,0.1
"2009-05-03 01:34:00",852988,8.57,37.1,3.586,0.673,10.31,102.0249,4.467,5.814,95,0,109.8,13.49,5.23,359.1
"2009-05-03 01:34:30",852989,8.58,38.94,3.655,0.776,10.5,102.0207,4.456,5.799,95,0,109.8,13.49,5.22,0.9
"2009-05-03 01:35:00",852990,8.45,37.79,3.598,0.906,10.51,102.0111,4.432,5.788,95,0,109.8,13.49,5.20,359.8
"2009-05-03 01:35:30",852991,8.41,40.38,3.745,0.845,10.46,102.0083,4.424,5.797,95.1,0,109.8,13.49,5.19,2.4
"2009-05-03 01:36:00",852992,8.67,37.78,4.947,0.604,10.4,102.0038,4.413,5.764,95.1,0,109.8,13.49,5.18,359.8
"2009-05-03 01:36:30",852993,8.93,37.18,4.493,0.877,10.41,102.0021,4.409,5.773,95.1,0,109.8,13.49,5.18,359.2
"2009-05-03 01:37:00",852994,8.33,36.93,3.792,0.862,10.32,101.9992,4.401,5.779,95.1,0,109.8,13.49,5.17,358.9
"2009-05-03 01:37:30",852995,7.763,40.21,4.73,0.576,10.34,101.9967,4.395,5.787,95.2,0,109.8,13.49,5.16,2.2
"2009-05-03 01:38:00",852996,8.4,38.36,3.911,0.69,9.87,101.995,4.39,5.762,95.2,0,109.8,13.49,5.16,0.4
"2009-05-03 01:38:30",852997,8.19,39.81,3.376,0.559,9.73,101.9942,4.388,5.75,95.2,0,109.8,13.49,5.16,1.8
"2009-05-03 01:39:00",852998,7.982,39.03,4.632,0.757,9.5,101.9928,4.385,5.751,95.3,0,109.8,13.49,5.15,1.0
"2009-05-03 01:39:30",852999,7.643,33.45,5.97,1.343,7.685,101.9942,4.388,5.651,95.2,0,109.8,13.49,5.16,355.5
"2009-05-03 01:40:00",853000,7.582,34.48,5.545,1.488,7.321,101.9945,4.389,5.641,95.2,0,109.8,13.49,5.16,356.5
"2009-05-03 01:40:30",853001,8.95,39.33,5.481,0.966,9.52,101.9951,4.391,5.699,95.3,0,109.8,13.49,5.16,1.3
"2009-05-03 01:41:00",853002,9.65,39.32,4.779,0.863,9.54,101.9951,4.391,5.696,95.4,0,109.8,13.49,5.16,1.3
"2009-05-03 01:41:30",853003,8.97,39.83,2.959,0.838,10.17,101.9933,4.386,5.72,95.5,0,109.8,13.49,5.15,1.8
"2009-05-03 01:42:00",853004,9.16,38.56,3.446,1.112,10.04,101.9953,4.391,5.72,95.5,0,109.8,13.49,5.16,0.6
"2009-05-03 01:42:30",853005,9.36,39.73,3.927,0.631,9.94,101.9951,4.391,5.715,95.5,0,109.8,13.49,5.16,1.7
"2009-05-03 01:43:00",853006,9.73,39.54,3.597,0.893,9.69,101.9942,4.388,5.706,95.6,0,109.8,13.49,5.16,1.5
"2009-05-03 01:43:30",853007,9.72,38.09,5.461,1.02,9.62,101.9911,4.38,5.705,95.6,0,109.8,13.49,5.15,0.1
"2009-05-03 01:44:00",853008,9.8,37.67,4.952,1.114,9.44,101.9877,4.372,5.696,95.6,0,109.8,13.49,5.14,359.7
"2009-05-03 01:44:30",853009,9.56,37.5,4.214,0.821,9.72,101.9863,4.368,5.699,95.7,0,109.8,13.49,5.14,359.5
"2009-05-03 01:45:00",853010,9.16,38.79,4.887,0.625,9.57,101.9846,4.364,5.709,95.7,0,109.8,13.49,5.13,0.8
"2009-05-03 01:45:30",853011,9.75,38.33,4.651,0.777,9.61,101.9821,4.357,5.706,95.7,0,109.8,13.49,5.12,0.3
"2009-05-03 01:46:00",853012,9.36,39.78,4.787,0.7,9.69,101.9806,4.354,5.684,95.8,0,109.8,13.49,5.12,1.8
"2009-05-03 01:46:30",853013,10.47,44.21,3.743,0.981,9.84,101.9798,4.352,5.68,95.8,0,109.8,13.49,5.12,6.2
"2009-05-03 01:47:00",853014,10.01,40.24,4.318,0.916,9.79,101.9787,4.349,5.691,95.9,0,109.8,13.49,5.12,2.2
"2009-05-03 01:47:30",853015,9.97,41.35,4.563,0.987,9.81,101.977,4.344,5.686,95.9,0,109.8,13.49,5.11,3.3
"2009-05-03 01:48:00",853016,10.08,39.16,4.876,1.01,9.79,101.9787,4.349,5.686,95.9,0,109.8,13.49,5.12,1.2
"2009-05-03 01:48:30",853017,9.61,36.33,3.646,0.951,9.91,101.9787,4.349,5.672,96,0,109.8,13.49,5.12,358.3
"2009-05-03 01:49:00",853018,9.47,39.17,3.988,0.88,9.67,101.9753,4.34,5.677,96,0,109.8,13.49,5.11,1.2
"2009-05-03 01:49:30",853019,9.5,37.71,4.02,1.128,9.65,101.9781,4.347,5.674,96,0,109.8,13.49,5.11,359.7
"2009-05-03 01:50:00",853020,8.93,39.14,3.937,0.737,9.5,101.979,4.35,5.667,96.1,0,109.8,13.49,5.12,1.1
"2009-05-03 01:50:30",853021,9.78,42.67,4.587,1.057,9.72,101.979,4.35,5.659,96.1,0,109.8,13.49,5.12,4.7
"2009-05-03 01:51:00",853022,9.61,41.18,4.247,1.28,9.47,101.9748,4.339,5.661,96.1,0,109.8,13.49,5.11,3.2
"2009-05-03 01:51:30",853023,10.16,41.57,4.66,0.957,9.47,101.9708,4.329,5.677,96.2,0,109.8,13.49,5.10,3.6
"2009-05-03 01:52:00",853024,9.45,39.54,4.127,0.96,9.52,101.9734,4.335,5.666,96.2,0,109.8,13.49,5.10,1.5